Stations météo

réclame
Mon MeteoGroup
Gioia Del Colle, Italie (16312): Température de l'air & dewpoint: 17.01.2019 08:00:00 - 23.01.2019 08:00:00 (CET)Gioia Del Colle, Italie (16312): Vitesse du vent: 17.01.2019 08:00:00 - 23.01.2019 08:00:00 (CET)Gioia Del Colle, Italie (16312): Direction du vent: 17.01.2019 08:00:00 - 23.01.2019 08:00:00 (CET)Gioia Del Colle, Italie (16312): reduced air pressure: 17.01.2019 08:00:00 - 23.01.2019 08:00:00 (CET)Gioia Del Colle, Italie (16312): visibility: 17.01.2019 08:00:00 - 23.01.2019 08:00:00 (CET)
Date & Time tt [°C] td [°C] ff [km/h] ff [knt] dd ppp [hPa] vv [km]
23.01.2019 08:00:00 3,0 0,0 13 7 S - 10
23.01.2019 07:00:00 2,8 0,2 8 4 SSE 1001,9 10
23.01.2019 06:00:00 3,0 1,0 15 8 S - 10
23.01.2019 05:00:00 3,0 0,0 11 6 WSW - 10
23.01.2019 04:00:00 2,0 -0,3 4 2 N 1003,0 10
23.01.2019 03:00:00 3,0 1,0 15 8 S - 10
23.01.2019 02:00:00 3,0 0,0 13 7 S - 10
23.01.2019 01:00:00 3,8 0,3 9 5 SSE 1004,2 10
23.01.2019 00:00:00 4,0 1,0 16 9 S - 10
22.01.2019 23:00:00 5,0 1,0 15 8 S - 10
22.01.2019 22:00:00 4,8 1,3 13 7 S 1003,8 10
22.01.2019 21:00:00 5,0 1,0 18 10 S - 10
22.01.2019 20:00:00 6,0 3,0 13 7 S - 10
22.01.2019 19:00:00 6,6 4,6 13 7 SSW 1002,6 10
22.01.2019 18:00:00 7,0 5,0 5 3 SSW - 8
22.01.2019 17:00:00 9,0 6,0 13 7 SSW - 7
22.01.2019 16:00:00 9,0 7,0 22 12 S 1001,9 7
22.01.2019 15:00:00 9,0 7,0 24 13 S - 6
22.01.2019 14:00:00 10,0 7,0 28 15 S - 6
22.01.2019 13:00:00 10,4 7,1 26 14 S 1003,0 7
22.01.2019 12:00:00 10,0 8,0 22 12 S - 6
22.01.2019 11:00:00 10,0 8,0 28 15 S - 6
22.01.2019 10:00:00 9,0 8,7 26 14 SSE 1004,9 6
22.01.2019 09:00:00 9,0 9,0 28 15 S - 6
22.01.2019 08:00:00 8,0 8,0 26 14 S - 6
22.01.2019 07:00:00 8,4 8,3 29 16 S 1005,7 3,0
22.01.2019 06:00:00 8,0 8,0 24 13 S - 4,0
22.01.2019 05:00:00 8,0 8,0 16 9 S - 7
22.01.2019 04:00:00 8,0 7,5 16 9 S 1007,1 7
22.01.2019 03:00:00 - - - - - - -
22.01.2019 02:00:00 8,0 7,0 24 13 S - 7
22.01.2019 01:00:00 8,0 7,6 24 13 SSE 1009,0 7
22.01.2019 00:00:00 8,0 8,0 24 13 S - 7
21.01.2019 23:00:00 8,0 8,0 15 8 SSE - 7
21.01.2019 22:00:00 8,0 7,6 18 10 S 1010,3 7
21.01.2019 21:00:00 8,0 7,0 16 9 S - 7
21.01.2019 20:00:00 8,0 7,0 16 9 SE - 7
21.01.2019 19:00:00 8,0 7,1 11 6 SE 1011,5 8
21.01.2019 18:00:00 8,0 7,0 11 6 SSE - 8
21.01.2019 17:00:00 9,0 7,0 13 7 SSE - 8
21.01.2019 16:00:00 9,0 5,9 18 10 SSE 1012,1 10
21.01.2019 15:00:00 10,0 6,0 24 13 SSE - 10
21.01.2019 14:00:00 10,0 6,0 22 12 SSE - 10
21.01.2019 13:00:00 10,0 5,6 24 13 SSE 1012,7 10
21.01.2019 12:00:00 10,0 7,0 22 12 SSE - 8
21.01.2019 11:00:00 10,0 6,0 22 12 SSE - 8
21.01.2019 10:00:00 7,6 7,6 18 10 SSE 1013,8 7
21.01.2019 09:00:00 7,0 7,0 13 7 SSE - 3,0
21.01.2019 08:00:00 6,0 6,0 13 7 SE - 3,2
21.01.2019 07:00:00 4,4 4,1 9 5 SE 1014,0 4,5
21.01.2019 06:00:00 4,0 4,0 9 5 SSE - 3,5
21.01.2019 05:00:00 4,0 4,0 9 5 S - 2,5
21.01.2019 04:00:00 2,4 2,4 5 3 S 1014,4 2,5
21.01.2019 03:00:00 2,0 2,0 5 3 S - 3,5
21.01.2019 02:00:00 - - - - - - -
21.01.2019 01:00:00 3,0 2,6 4 2 N 1015,0 8
21.01.2019 00:00:00 4,0 3,0 4 2 - - 8
20.01.2019 23:00:00 3,0 3,0 5 3 SSE - 8
20.01.2019 22:00:00 3,0 2,4 4 2 N 1015,0 10
20.01.2019 21:00:00 3,0 2,0 4 2 - - 10
20.01.2019 20:00:00 4,0 3,0 2 1 - - 10
20.01.2019 19:00:00 5,6 3,6 5 3 ESE 1013,3 10
20.01.2019 18:00:00 7,0 3,0 5 3 - - 10
20.01.2019 17:00:00 8,0 2,0 8 4 S - 10
20.01.2019 16:00:00 10,2 -0,6 8 4 ESE 1012,0 10
20.01.2019 15:00:00 11,0 0,0 8 4 SSE - 10
20.01.2019 14:00:00 10,0 -1,0 8 4 ESE - 10
20.01.2019 13:00:00 11,0 -0,5 2 1 N 1012,6 10
20.01.2019 12:00:00 10,0 0,0 4 2 - - 10
20.01.2019 11:00:00 8,0 1,0 4 2 - - 10
20.01.2019 10:00:00 4,0 -1,0 5 3 NE 1014,5 10
20.01.2019 09:00:00 3,0 3,0 2 1 - - 10
20.01.2019 08:00:00 2,0 2,0 2 1 ENE - 10
20.01.2019 07:00:00 0,6 0,6 4 2 ENE 1014,9 10
20.01.2019 06:00:00 1,0 1,0 4 2 E - 10
20.01.2019 05:00:00 1,0 1,0 2 1 N - 10
20.01.2019 04:00:00 0,6 0,6 4 2 S 1014,5 10
20.01.2019 03:00:00 1,0 1,0 4 2 WNW - 10
20.01.2019 02:00:00 1,0 1,0 4 2 WNW - 10
20.01.2019 01:00:00 1,4 1,4 2 1 SSW 1014,5 10
20.01.2019 00:00:00 3,0 3,0 0 0 N - 10
19.01.2019 23:00:00 3,0 3,0 4 2 W - 10
19.01.2019 22:00:00 4,6 4,3 4 2 ENE 1014,3 10
19.01.2019 21:00:00 6,0 5,0 5 3 NNE - 9
19.01.2019 20:00:00 6,0 5,0 24 13 W - 3,5
19.01.2019 19:00:00 7,4 5,9 9 5 SSE 1012,9 7
19.01.2019 18:00:00 9,0 6,0 9 5 S - 10
19.01.2019 17:00:00 10,0 3,0 8 4 NNE - 10
19.01.2019 16:00:00 11,4 2,2 8 4 S 1012,1 10
19.01.2019 15:00:00 12,0 3,0 11 6 SSW - 10
19.01.2019 14:00:00 11,0 3,0 9 5 SSW - 10
19.01.2019 13:00:00 11,2 2,8 15 8 SSW 1013,4 10
19.01.2019 12:00:00 11,0 3,0 16 9 S - 10
19.01.2019 11:00:00 10,0 4,0 18 10 S - 10
19.01.2019 10:00:00 8,4 3,0 15 8 S 1014,3 10
19.01.2019 09:00:00 5,0 4,0 11 6 SSE - 10
19.01.2019 08:00:00 1,0 1,0 2 1 - - 10
19.01.2019 07:00:00 1,0 0,7 4 2 SSW 1014,8 10
19.01.2019 06:00:00 1,0 1,0 9 5 S - 10
19.01.2019 05:00:00 1,0 1,0 4 2 S - 10
19.01.2019 04:00:00 1,6 1,0 5 3 S 1015,1 10
19.01.2019 03:00:00 2,0 1,0 5 3 SE - 10
19.01.2019 02:00:00 2,0 1,0 4 2 WNW - 10
19.01.2019 01:00:00 4,0 2,2 5 3 S 1015,1 10
19.01.2019 00:00:00 5,0 2,0 13 7 S - 10
18.01.2019 23:00:00 6,0 3,0 15 8 S - 10
18.01.2019 22:00:00 6,2 3,4 15 8 SSE 1014,7 10
18.01.2019 21:00:00 6,0 4,0 4 2 WSW - 10
18.01.2019 20:00:00 8,0 5,0 11 6 S - 10
18.01.2019 19:00:00 8,0 5,1 13 7 S 1014,4 10
18.01.2019 18:00:00 8,0 5,0 13 7 S - 10
18.01.2019 17:00:00 10,0 6,0 13 7 S - 10
18.01.2019 16:00:00 10,0 3,7 21 11 S 1013,9 10
18.01.2019 15:00:00 12,0 3,0 21 11 SSW - 10
18.01.2019 14:00:00 12,0 2,0 24 13 SW - 10
18.01.2019 13:00:00 12,0 2,5 21 11 SSW 1014,0 10
18.01.2019 12:00:00 12,0 4,0 18 10 SSW - 10
18.01.2019 11:00:00 11,0 4,0 21 11 S - 8
18.01.2019 10:00:00 8,6 7,1 16 9 S 1015,6 6
18.01.2019 09:00:00 7,0 7,0 16 9 S - 5
18.01.2019 08:00:00 5,0 4,0 18 10 SSE - 5
18.01.2019 07:00:00 3,8 2,5 15 8 S 1015,5 5
18.01.2019 06:00:00 4,0 3,0 11 6 S - 3,5
18.01.2019 05:00:00 4,0 4,0 16 9 SSE - 3,5
18.01.2019 04:00:00 5,0 5,0 13 7 S 1015,9 3,0
18.01.2019 03:00:00 4,0 4,0 18 10 SSE - 2,5
18.01.2019 02:00:00 2,0 2,0 8 4 S - 0,8
18.01.2019 01:00:00 1,6 1,6 4 2 SW 1018,2 1,5
18.01.2019 00:00:00 2,0 2,0 4 2 SW - 3,0
17.01.2019 23:00:00 2,0 2,0 4 2 S - 3,0
17.01.2019 22:00:00 3,2 3,1 8 4 S 1018,6 7
17.01.2019 21:00:00 4,0 4,0 13 7 S - 8
17.01.2019 20:00:00 3,0 1,0 4 2 SE - 10
17.01.2019 19:00:00 4,0 0,7 8 4 S 1018,5 10
17.01.2019 18:00:00 6,0 0,0 15 8 S - 10
17.01.2019 17:00:00 8,0 -1,0 11 6 S - 10
17.01.2019 16:00:00 9,6 -1,7 16 9 SSE 1018,1 10
17.01.2019 15:00:00 10,0 -2,0 13 7 S - 10
17.01.2019 14:00:00 9,0 -3,0 16 9 S - 10
17.01.2019 13:00:00 9,2 -0,4 15 8 S 1019,3 10
17.01.2019 12:00:00 9,0 0,0 13 7 S - 10
17.01.2019 11:00:00 7,0 1,0 18 10 S - 10
17.01.2019 10:00:00 6,0 0,5 15 8 S 1020,4 10
17.01.2019 09:00:00 2,0 1,0 5 3 S - 10
17.01.2019 08:00:00 -1,0 -2,0 4 2 SW - 10

tt = Température de l'air
td = dewpoint
ff = Vitesse du vent
dd = Direction du vent
ppp = reduced air pressure
vv = visibility

stations d'obs. à proximité